timestamp,wind_dir_avg,wind_spd_avg,wind_spd_max_dir,wind_spd_gust,battery_voltage,lat,long
2023-02-20 00:04:00+00:00,285.0,5.0,287.0,5.63,12.33,47.59359,-54.27349
2023-02-20 00:14:01+00:00,292.0,5.14,295.0,5.79,12.33,47.59359,-54.27349
2023-02-20 00:24:01+00:00,271.0,5.19,272.0,5.91,12.33,47.59359,-54.27349
2023-02-20 00:34:01+00:00,267.0,4.62,268.0,5.35,12.33,47.59359,-54.27349
2023-02-20 00:44:01+00:00,272.0,4.97,275.0,5.4,12.33,47.59359,-54.27349
2023-02-20 00:54:01+00:00,281.0,4.38,281.0,4.75,12.33,47.59359,-54.27349
2023-02-20 01:04:01+00:00,275.0,4.5,275.0,4.96,12.33,47.59359,-54.27349
2023-02-20 01:14:00+00:00,288.0,4.53,288.0,5.23,12.25,47.59359,-54.27349
2023-02-20 01:24:00+00:00,302.0,4.28,298.0,5.24,12.25,47.59359,-54.27349
2023-02-20 01:34:00+00:00,294.0,4.98,300.0,5.54,12.25,47.59359,-54.27349
2023-02-20 01:44:00+00:00,300.0,4.83,303.0,5.34,12.25,47.59359,-54.27349
2023-02-20 01:54:00+00:00,295.0,4.84,302.0,5.44,12.25,47.59359,-54.27349
2023-02-20 02:04:00+00:00,298.0,5.05,298.0,5.86,12.25,47.59359,-54.27349
2023-02-20 02:14:00+00:00,285.0,4.34,293.0,5.3,12.25,47.59359,-54.27349
2023-02-20 02:24:00+00:00,281.0,4.22,280.0,4.84,12.25,47.59359,-54.27349
2023-02-20 02:34:00+00:00,280.0,5.22,277.0,6.77,12.25,47.59359,-54.27349
2023-02-20 02:44:00+00:00,283.0,5.64,285.0,7.02,12.25,47.59359,-54.27349
2023-02-20 02:54:00+00:00,282.0,4.06,298.0,4.85,12.25,47.59359,-54.27349
2023-02-20 03:04:00+00:00,271.0,3.91,268.0,4.73,12.25,47.59359,-54.27349
2023-02-20 03:14:00+00:00,287.0,6.35,288.0,7.03,12.17,47.59359,-54.27349
2023-02-20 03:24:00+00:00,272.0,6.07,273.0,6.62,12.17,47.59359,-54.27349
2023-02-20 03:34:00+00:00,283.0,6.32,288.0,7.0,12.17,47.59359,-54.27349
2023-02-20 03:44:00+00:00,289.0,6.0,288.0,6.87,12.17,47.59359,-54.27349
2023-02-20 03:54:00+00:00,279.0,5.89,281.0,6.8,12.17,47.59359,-54.27349
2023-02-20 04:04:00+00:00,280.0,6.2,282.0,6.53,12.17,47.59359,-54.27349
2023-02-20 04:14:01+00:00,275.0,6.07,274.0,6.64,12.17,47.59359,-54.27349
2023-02-20 04:24:01+00:00,270.0,5.52,270.0,6.1,12.17,47.59359,-54.27349
2023-02-20 04:34:01+00:00,270.0,5.79,276.0,6.56,12.17,47.59359,-54.27349
2023-02-20 04:44:01+00:00,268.0,5.89,267.0,6.88,12.17,47.59359,-54.27349
2023-02-20 04:54:01+00:00,269.0,5.26,266.0,6.65,12.17,47.59359,-54.27349
2023-02-20 05:04:01+00:00,286.0,5.0,287.0,6.84,12.17,47.59359,-54.27349
2023-02-20 05:14:01+00:00,281.0,6.08,281.0,6.5,12.17,47.59359,-54.27349
2023-02-20 05:24:01+00:00,289.0,5.98,289.0,6.74,12.17,47.59359,-54.27349
2023-02-20 05:34:01+00:00,282.0,4.94,276.0,6.65,12.17,47.59359,-54.27349
2023-02-20 05:44:01+00:00,295.0,6.36,301.0,7.03,12.17,47.59359,-54.27349
2023-02-20 05:54:01+00:00,294.0,6.29,292.0,7.05,12.17,47.59359,-54.27349
2023-02-20 06:04:01+00:00,287.0,5.81,287.0,6.23,12.17,47.59359,-54.27349
2023-02-20 06:14:00+00:00,308.0,4.04,296.0,5.9,12.09,47.59359,-54.27349
2023-02-20 06:24:00+00:00,317.0,3.11,294.0,5.87,12.09,47.59359,-54.27349
2023-02-20 06:34:00+00:00,353.0,1.44,289.0,3.01,12.09,47.59359,-54.27349
2023-02-20 06:44:00+00:00,15.0,2.26,9.0,2.58,12.09,47.59359,-54.27349
2023-02-20 06:54:00+00:00,1.0,1.02,354.0,1.37,12.09,47.59359,-54.27349
2023-02-20 07:04:00+00:00,13.0,1.55,6.0,2.05,12.09,47.59359,-54.27349
2023-02-20 07:14:00+00:00,351.0,1.32,347.0,1.6,12.09,47.59359,-54.27349
2023-02-20 07:24:00+00:00,7.0,1.01,3.0,1.15,12.09,47.59359,-54.27349
2023-02-20 07:34:00+00:00,52.0,0.6,69.0,1.15,12.09,47.59359,-54.27349
2023-02-20 07:44:00+00:00,11.0,0.66,4.0,0.87,12.09,47.59359,-54.27349
2023-02-20 07:54:00+00:00,83.0,1.48,86.0,4.58,12.09,47.59359,-54.27349
2023-02-20 08:04:00+00:00,132.0,0.68,146.0,1.1,12.09,47.59359,-54.27349
2023-02-20 08:14:00+00:00,87.0,1.65,92.0,4.07,12.09,47.59359,-54.27349
2023-02-20 08:24:00+00:00,81.0,1.3,91.0,4.06,12.09,47.59359,-54.27349
2023-02-20 08:34:00+00:00,170.0,0.91,176.0,1.28,12.09,47.59359,-54.27349
2023-02-20 08:44:00+00:00,225.0,0.63,236.0,1.01,12.09,47.59359,-54.27349
2023-02-20 08:54:00+00:00,338.0,1.18,306.0,1.76,12.09,47.59359,-54.27349
2023-02-20 09:04:00+00:00,64.0,2.43,79.0,5.39,12.09,47.59359,-54.27349
2023-02-20 09:14:00+00:00,11.0,1.42,10.0,1.73,12.09,47.59359,-54.27349
2023-02-20 09:24:00+00:00,4.0,1.73,0.0,1.98,12.09,47.59359,-54.27349
2023-02-20 09:34:00+00:00,10.0,2.13,11.0,2.4,12.09,47.59359,-54.27349
2023-02-20 09:44:00+00:00,21.0,1.8,57.0,3.14,12.09,47.59359,-54.27349
2023-02-20 09:54:00+00:00,61.0,2.84,73.0,5.38,12.09,47.59359,-54.27349
2023-02-20 10:04:00+00:00,74.0,4.13,78.0,5.64,12.09,47.59359,-54.27349
2023-02-20 10:14:01+00:00,71.0,4.25,72.0,5.58,12.09,47.59359,-54.27349
2023-02-20 10:24:01+00:00,67.0,3.55,72.0,5.38,12.09,47.59359,-54.27349
2023-02-20 10:34:01+00:00,357.0,1.73,0.0,2.01,12.09,47.59359,-54.27349
2023-02-20 10:44:01+00:00,31.0,1.8,68.0,4.46,12.09,47.59359,-54.27349
2023-02-20 10:54:01+00:00,357.0,2.22,0.0,2.54,12.09,47.59359,-54.27349
2023-02-20 11:04:01+00:00,29.0,0.6,29.0,0.92,12.09,47.59359,-54.27349
2023-02-20 11:14:00+00:00,359.0,1.04,359.0,1.41,12.97,47.59359,-54.27349
2023-02-20 11:24:00+00:00,201.0,2.92,214.0,4.01,12.97,47.59359,-54.27349
2023-02-20 11:34:00+00:00,160.0,3.55,158.0,4.59,12.97,47.59359,-54.27349
2023-02-20 11:44:00+00:00,163.0,4.8,155.0,5.43,12.97,47.59359,-54.27349
2023-02-20 11:54:00+00:00,172.0,4.98,172.0,5.5,12.97,47.59359,-54.27349
2023-02-20 12:04:00+00:00,177.0,5.08,179.0,6.45,12.97,47.59359,-54.27349
2023-02-20 12:14:00+00:00,180.0,2.44,178.0,3.0,13.05,47.59359,-54.27349
2023-02-20 12:24:00+00:00,211.0,5.51,186.0,7.89,13.05,47.59359,-54.27349
2023-02-20 12:34:00+00:00,200.0,7.82,195.0,9.96,13.05,47.59359,-54.27349
2023-02-20 12:44:00+00:00,185.0,7.36,180.0,8.47,13.05,47.59359,-54.27349
2023-02-20 12:54:00+00:00,186.0,7.14,188.0,8.18,13.05,47.59359,-54.27349
2023-02-20 13:04:00+00:00,195.0,8.84,198.0,10.33,13.05,47.59359,-54.27349
2023-02-20 13:14:00+00:00,196.0,8.35,199.0,9.35,13.6,47.59359,-54.27349
2023-02-20 13:24:00+00:00,194.0,9.92,194.0,11.66,13.6,47.59359,-54.27349
2023-02-20 13:34:00+00:00,194.0,9.38,196.0,11.71,13.6,47.59359,-54.27349
2023-02-20 13:44:00+00:00,200.0,9.42,205.0,10.73,13.6,47.59359,-54.27349
2023-02-20 13:54:00+00:00,194.0,11.48,199.0,12.71,13.6,47.59359,-54.27349
2023-02-20 14:04:00+00:00,198.0,10.37,198.0,11.43,13.6,47.59359,-54.27349
2023-02-20 14:14:00+00:00,195.0,10.97,195.0,12.22,13.53,47.59359,-54.27349
2023-02-20 14:24:00+00:00,200.0,11.97,203.0,13.67,13.53,47.59359,-54.27349
2023-02-20 14:34:00+00:00,198.0,12.67,198.0,14.31,13.53,47.59359,-54.27349
2023-02-20 14:44:00+00:00,197.0,12.66,197.0,13.57,13.53,47.59359,-54.27349
2023-02-20 14:54:00+00:00,198.0,11.22,192.0,12.8,13.53,47.59359,-54.27349
2023-02-20 15:04:00+00:00,201.0,11.73,200.0,13.01,13.53,47.59359,-54.27349
2023-02-20 15:14:00+00:00,194.0,11.64,194.0,13.08,13.53,47.59359,-54.27349
2023-02-20 15:24:00+00:00,194.0,10.7,189.0,12.17,13.53,47.59359,-54.27349
2023-02-20 15:34:00+00:00,193.0,12.16,190.0,13.88,13.53,47.59359,-54.27349
2023-02-20 15:44:00+00:00,192.0,13.23,189.0,14.68,13.53,47.59359,-54.27349
2023-02-20 15:54:00+00:00,196.0,12.39,195.0,13.95,13.53,47.59359,-54.27349
2023-02-20 16:04:00+00:00,195.0,11.6,200.0,13.1,13.53,47.59359,-54.27349
2023-02-20 16:14:00+00:00,194.0,13.28,188.0,15.18,13.53,47.59359,-54.27349
2023-02-20 16:24:00+00:00,188.0,12.98,186.0,15.34,13.53,47.59359,-54.27349
2023-02-20 16:34:00+00:00,190.0,10.81,188.0,11.92,13.53,47.59359,-54.27349
2023-02-20 16:44:00+00:00,195.0,14.04,197.0,15.61,13.53,47.59359,-54.27349
2023-02-20 16:54:00+00:00,193.0,13.79,190.0,16.87,13.53,47.59359,-54.27349
2023-02-20 17:04:00+00:00,193.0,12.49,193.0,14.13,13.53,47.59359,-54.27349
2023-02-20 17:14:00+00:00,196.0,13.61,197.0,15.56,13.6,47.59359,-54.27349
2023-02-20 17:24:00+00:00,193.0,14.05,194.0,15.65,13.6,47.59359,-54.27349
2023-02-20 17:34:00+00:00,195.0,12.55,192.0,13.95,13.6,47.59359,-54.27349
2023-02-20 17:44:00+00:00,194.0,14.61,194.0,16.64,13.6,47.59359,-54.27349
2023-02-20 17:54:00+00:00,195.0,13.41,194.0,14.94,13.6,47.59359,-54.27349
2023-02-20 18:04:00+00:00,193.0,13.2,193.0,14.69,13.6,47.59359,-54.27349
2023-02-20 18:14:00+00:00,194.0,13.1,203.0,16.39,13.68,47.59359,-54.27349
2023-02-20 18:24:00+00:00,194.0,13.4,191.0,16.44,13.68,47.59359,-54.27349
2023-02-20 18:34:00+00:00,191.0,13.17,190.0,16.04,13.68,47.59359,-54.27349
2023-02-20 18:44:00+00:00,194.0,15.24,203.0,18.65,13.68,47.59359,-54.27349
2023-02-20 18:54:00+00:00,193.0,13.93,199.0,15.57,13.68,47.59359,-54.27349
2023-02-20 19:04:00+00:00,195.0,12.38,194.0,14.4,13.68,47.59359,-54.27349
2023-02-20 19:14:00+00:00,184.0,13.53,184.0,15.2,13.44,47.59359,-54.27349
2023-02-20 19:24:00+00:00,191.0,15.03,187.0,16.3,13.44,47.59359,-54.27349
2023-02-20 19:34:00+00:00,184.0,12.38,193.0,14.52,13.44,47.59359,-54.27349
2023-02-20 19:44:00+00:00,186.0,13.2,183.0,15.45,13.44,47.59359,-54.27349
2023-02-20 19:54:00+00:00,184.0,11.46,194.0,13.55,13.44,47.59359,-54.27349
2023-02-20 20:04:00+00:00,182.0,12.9,179.0,14.92,13.44,47.59359,-54.27349
2023-02-20 20:14:00+00:00,180.0,11.21,184.0,12.79,13.37,47.59359,-54.27349
2023-02-20 20:24:00+00:00,187.0,10.21,196.0,11.94,13.37,47.59359,-54.27349
2023-02-20 20:34:00+00:00,177.0,13.69,181.0,16.06,13.37,47.59359,-54.27349
2023-02-20 20:44:00+00:00,175.0,12.64,171.0,14.36,13.37,47.59359,-54.27349
2023-02-20 20:54:00+00:00,174.0,15.12,172.0,17.09,13.37,47.59359,-54.27349
2023-02-20 21:04:00+00:00,175.0,14.36,185.0,16.24,13.37,47.59359,-54.27349
2023-02-20 21:14:00+00:00,174.0,14.53,171.0,15.89,12.65,47.59359,-54.27349
2023-02-20 21:24:00+00:00,179.0,14.52,185.0,17.87,12.65,47.59359,-54.27349
2023-02-20 21:34:00+00:00,184.0,13.1,174.0,15.42,12.65,47.59359,-54.27349
2023-02-20 21:44:00+00:00,188.0,14.6,198.0,18.16,12.65,47.59359,-54.27349
2023-02-20 21:54:00+00:00,187.0,14.17,180.0,16.22,12.65,47.59359,-54.27349
2023-02-20 22:04:00+00:00,194.0,14.05,200.0,16.2,12.65,47.59359,-54.27349
2023-02-20 22:14:00+00:00,185.0,12.58,173.0,14.81,12.41,47.59359,-54.27349
2023-02-20 22:24:00+00:00,191.0,14.57,191.0,16.7,12.41,47.59359,-54.27349
2023-02-20 22:34:00+00:00,188.0,14.24,209.0,17.17,12.41,47.59359,-54.27349
2023-02-20 22:44:00+00:00,183.0,16.01,190.0,18.71,12.41,47.59359,-54.27349
2023-02-20 22:54:00+00:00,183.0,14.43,190.0,17.88,12.41,47.59359,-54.27349
2023-02-20 23:04:00+00:00,175.0,11.2,174.0,13.58,12.41,47.59359,-54.27349
2023-02-20 23:14:00+00:00,179.0,13.96,192.0,16.63,12.33,47.59359,-54.27349
2023-02-20 23:24:00+00:00,178.0,12.77,182.0,17.02,12.33,47.59359,-54.27349
2023-02-20 23:34:00+00:00,179.0,14.27,181.0,17.65,12.33,47.59359,-54.27349
2023-02-20 23:44:00+00:00,179.0,14.13,174.0,18.01,12.33,47.59359,-54.27349
2023-02-20 23:54:00+00:00,178.0,14.59,180.0,17.47,12.33,47.59359,-54.27349
